Weather in Franschhoek

South Africa     33°54′27″S   19°07′02″E
temp.,
°C
wind,
m/s
gust,
m/s
humid.,
%
clouds,
%
prec.,
mm/h
press.,
hPa
HPBL,
m
19 may, wed
wed1923:00+12nnw22515 0.0 101420
02:00+11n32535 0.0 101431
05:00+11n33550 0.0 101336
08:00+10n33570 0.0 101349
11:00+17nnw463867 0.0 1012466
14:00+18nnw5103518 0.0 10101032
17:00+16nnw511473 0.0 1010829
20:00+11nnw48638 0.0 1011241
20 may, thu
thu2023:00+11nnw497499 0.1 1010470
02:00+10n4995100 11.0 1010454
05:00+11nnw51296100 2.4 10091155
08:00+11nw61499100 7.7 10091439
11:00+11wnw61398100 15.1 10111290
14:00+10wnw61184100 17.8 10121379
17:00+10nw6118389 2.1 10131168
20:00+7nw5119521 3.4 1016693
21 may, fri
fri2123:00+8nw61397100 1.2 1016932
02:00+8nw6149799 3.4 10181129
05:00+9wnw51097100 2.1 1018939
08:00+9wnw3496100 3.9 1021250
11:00+10wnw358339 0.7 1024596
14:00+10w3482100 1.1 1023634
17:00+9w228798 0.4 1025357
20:00+8wsw118893 0.8 102846
22 may, sat
sat2223:00+7ese008446 0.1 102810
02:00+6e22860 0.1 102813
05:00+6e32901 0.0 102832
08:00+5e32930 0.0 102839
11:00+12e12650 0.0 1027466
14:00+15wnw12420 0.0 1023722
17:00+13sw01590 0.0 102312
20:00+9e32654 0.0 102322
23 may, sun
sun2323:00+9ene22484 0.0 102314
02:00+11e223469 0.0 102111
05:00+11ene2238100 0.0 102013
08:00+12ene2241100 0.0 102016
11:00+20ene1134100 0.0 1018121
14:00+23nw123092 0.0 1016496
17:00+19nne115167 0.0 101611
20:00+15ne22446 0.0 101615